This is the latest recevied weather packets stored in our database for station/object SR1WXW. If no packets are shown the sender has not sent any weather packets the latest 10 day(s).
| Time | Temp. | Humidity | Pressure | Rain* | Wind** | Luminosity | Snow |
|---|---|---|---|---|---|---|---|
| 1777910884 | 17.78° C | 63% | 1006.4 hPa | 0 mm | - | - | - |
| 1777910584 | 17.78° C | 63% | 1006.6 hPa | 0 mm | - | - | - |
| 1777910285 | 18.33° C | 62% | 1006.7 hPa | 0 mm | - | - | - |
| 1777909984 | 18.33° C | 62% | 1006.6 hPa | 0 mm | - | - | - |
| 1777909685 | 18.89° C | 61% | 1006.5 hPa | 0 mm | - | - | - |
| 1777909385 | 18.89° C | 61% | 1006.6 hPa | 0 mm | - | - | - |
| 1777909085 | 18.89° C | 61% | 1006.5 hPa | 0 mm | - | - | - |
| 1777908785 | 18.89° C | 61% | 1006.5 hPa | 0 mm | - | - | - |
| 1777908485 | 19.44° C | 61% | 1006.4 hPa | 0 mm | - | - | - |
| 1777908185 | 19.44° C | 62% | 1006.3 hPa | 0 mm | - | - | - |
| 1777907885 | 19.44° C | 62% | 1006.3 hPa | 0 mm | - | - | - |
| 1777907585 | 19.44° C | 61% | 1006.4 hPa | 0 mm | - | - | - |
| 1777907285 | 19.44° C | 62% | 1006.4 hPa | 0 mm | - | - | - |
| 1777906985 | 18.89° C | 62% | 1006.5 hPa | 0 mm | - | - | - |
| 1777906685 | 18.89° C | 62% | 1006.3 hPa | 0 mm | - | - | - |
| 1777906385 | 18.89° C | 62% | 1006.3 hPa | 0 mm | - | - | - |
| 1777906085 | 19.44° C | 62% | 1006.3 hPa | 0 mm | - | - | - |
| 1777905785 | 19.44° C | 61% | 1006.3 hPa | 0 mm | - | - | - |
| 1777905485 | 19.44° C | 61% | 1006.4 hPa | 0 mm | - | - | - |
| 1777905185 | 19.44° C | 61% | 1006.4 hPa | 0 mm | - | - | - |
| 1777904885 | 19.44° C | 60% | 1006.5 hPa | 0 mm | - | - | - |
| 1777904585 | 20° C | 60% | 1006.4 hPa | 0 mm | - | - | - |
| 1777904285 | 20° C | 59% | 1006.3 hPa | 0 mm | - | - | - |
| 1777903985 | 20.56° C | 58% | 1006.4 hPa | 0 mm | - | - | - |
| 1777903685 | 20.56° C | 57% | 1006.2 hPa | 0 mm | - | - | - |
* Rain latest hour (hover to see other rain measurements)
** Current wind speed in m/s (hover to see current wind gust speed)